Regional Weather Roundup
Issued by NWS Nashville, TN

Current Version | Previous Version | Text Only | Print | Product List | Glossary Off
Versions: 1 2 3 4 5 6 7 8 9 10 11 12 13 14 15 16 17 18 19 20 21 22 23 24 25 26 27 28 29 30 31 32 33 34 35 36 37 38 39 40 41 42 43 44 45 46 47 48 49 50

000
ASUS44 KOHX 230210
RWROHX
MIDDLE TENNESSEE HOURLY WEATHER ROUNDUP
NATIONAL WEATHER SERVICE NASHVILLE TN
900 PM CDT TUE AUG 22 2017

NOTE: "FAIR" INDICATES FEW OR NO CLOUDS BELOW 12,000 FEET WITH
NO SIGNIFICANT WEATHER AND/OR OBSTRUCTIONS TO VISIBILITY.

* THESE REPORTS ARE NOT UNDER NWS QUALITY CONTROL AND MAY NOT
  REPORT WEATHER SUCH AS PRECIPITATION AND FOG.


TNZ005>011-023>034-057-059-062>066-078-080-230300
...NORTHERN MIDDLE TENNESSEE...

CITY           SKY/WX    TMP DP  RH WIND       PRES   REMARKS
CLARKSVILLE    MOCLDY    73  70  90 CALM      29.99R
CROSSVILLE     PTCLDY    76  67  73 SW5       30.03S
GALLATIN       CLOUDY    73  72  94 CALM      30.00R
DICKSON          N/A     70  70 100 W5        30.00R
LEBANON        CLOUDY    72  70  93 SE6       29.97R
NASHVILLE      CLOUDY    75  73  93 SW6       29.98S
PORTLAND       MOCLDY    73  72  94 CALM      29.98R FOG
SMYRNA         LGT RAIN  73  72  96 S6        30.00S
SPARTA         PTCLDY    79  70  73 SW7       29.96R
SPRINGFIELD    CLOUDY    72  72 100 CALM      29.97R FOG
WEST NASHVILLE MOCLDY    73  73 100 W5        29.96R
$$
TNZ056-058-060-061-075>077-079-093>097-230300
...SOUTHERN MIDDLE TENNESSEE...

CITY           SKY/WX    TMP DP  RH WIND       PRES   REMARKS
COLUMBIA       MOCLDY    72  72 100 SW5       30.00R
FAYETTEVILLE   CLEAR     79  72  78 SW6       30.00S
MCMINNVILLE    CLEAR     77  73  88 CALM      30.01R
MURFREESBORO   CLOUDY    74  71  90 SW7       30.00R
PULASKI        CLOUDY    73  70  88 CALM      30.03R
SHELBYVILLE    CLOUDY    70  68  94 NW6       30.02R FOG
TULLAHOMA        N/A     77  66  69 NW15      30.04R
WINCHESTER     CLEAR     75  72  88 CALM      30.01R
$$


...KEY TO REMARKS...
VSB - VISIBILITY IN MILES
WCI - WIND CHILL INDEX
HX  - HEAT INDEX




USA.gov is the U.S. government's official web portal to all federal, state and local government web resources and services.